Year,Month,Day,Hour,Minute,Value (Times are PST for temperature in C)
2020,05,04,00,00,7.50
2020,05,04,00,01,7.50
2020,05,04,00,02,7.50
2020,05,04,00,03,7.50
2020,05,04,00,04,7.40
2020,05,04,00,05,7.40
2020,05,04,00,06,7.40
2020,05,04,00,07,7.40
2020,05,04,00,08,7.30
2020,05,04,00,09,7.30
2020,05,04,00,10,7.30
2020,05,04,00,11,7.20
2020,05,04,00,12,7.20
2020,05,04,00,13,7.20
2020,05,04,00,14,7.20
2020,05,04,00,15,7.20
2020,05,04,00,16,7.20
2020,05,04,00,17,7.20
2020,05,04,00,18,7.10
2020,05,04,00,19,7.10
2020,05,04,00,20,7.10
2020,05,04,00,21,7.10
2020,05,04,00,22,7.10
2020,05,04,00,23,7.00
2020,05,04,00,24,7.00
2020,05,04,00,25,7.00
2020,05,04,00,26,7.00
2020,05,04,00,27,7.00
2020,05,04,00,28,7.00
2020,05,04,00,29,7.00
2020,05,04,00,30,7.00
2020,05,04,00,31,6.90
2020,05,04,00,32,6.90
2020,05,04,00,33,6.90
2020,05,04,00,34,6.90
2020,05,04,00,35,6.90
2020,05,04,00,36,7.00
2020,05,04,00,37,7.00
2020,05,04,00,38,7.00
2020,05,04,00,39,7.00
2020,05,04,00,40,7.00
2020,05,04,00,41,7.00
2020,05,04,00,42,7.00
2020,05,04,00,43,6.90
2020,05,04,00,44,6.90
2020,05,04,00,45,6.90
2020,05,04,00,46,6.90
2020,05,04,00,47,6.90
2020,05,04,00,48,6.90
2020,05,04,00,49,6.90
2020,05,04,00,50,6.90
2020,05,04,00,51,6.80
2020,05,04,00,52,6.80
2020,05,04,00,53,6.80
2020,05,04,00,54,6.80
2020,05,04,00,55,6.80
2020,05,04,00,56,6.80
2020,05,04,00,57,6.80
2020,05,04,00,58,6.80
2020,05,04,00,59,6.80
2020,05,04,01,00,6.80
2020,05,04,01,01,6.80
2020,05,04,01,02,6.80
2020,05,04,01,03,6.80
2020,05,04,01,04,6.80
2020,05,04,01,05,6.80
2020,05,04,01,06,6.80
2020,05,04,01,07,6.80
2020,05,04,01,08,6.80
2020,05,04,01,09,6.80
2020,05,04,01,10,6.80
2020,05,04,01,11,6.80
2020,05,04,01,12,6.80
2020,05,04,01,13,6.70
2020,05,04,01,14,6.70
2020,05,04,01,15,6.70
2020,05,04,01,16,6.60
2020,05,04,01,17,6.60
2020,05,04,01,18,6.60
2020,05,04,01,19,6.60
2020,05,04,01,20,6.60
2020,05,04,01,21,6.60
2020,05,04,01,22,6.60
2020,05,04,01,23,6.60
2020,05,04,01,24,6.60
2020,05,04,01,25,6.60
2020,05,04,01,26,6.60
2020,05,04,01,27,6.60
2020,05,04,01,28,6.60
2020,05,04,01,29,6.60
2020,05,04,01,30,6.60
2020,05,04,01,31,6.60
2020,05,04,01,32,6.60
2020,05,04,01,33,6.60
2020,05,04,01,34,6.60
2020,05,04,01,35,6.60
2020,05,04,01,36,6.60
2020,05,04,01,37,6.60
2020,05,04,01,38,6.60
2020,05,04,01,39,6.60
2020,05,04,01,40,6.60
2020,05,04,01,41,6.60
2020,05,04,01,42,6.70
2020,05,04,01,43,6.70
2020,05,04,01,44,6.70
2020,05,04,01,45,6.70
2020,05,04,01,46,6.80
2020,05,04,01,47,6.80
2020,05,04,01,48,6.80
2020,05,04,01,49,6.80
2020,05,04,01,50,6.80
2020,05,04,01,51,6.80
2020,05,04,01,52,6.80
2020,05,04,01,53,6.80
2020,05,04,01,54,6.90
2020,05,04,01,55,6.90
2020,05,04,01,56,6.90
2020,05,04,01,57,6.90
2020,05,04,01,58,7.00
2020,05,04,01,59,7.00
2020,05,04,02,00,7.00
2020,05,04,02,01,7.00
2020,05,04,02,02,7.10
2020,05,04,02,03,7.10
2020,05,04,02,04,7.10
2020,05,04,02,05,7.10
2020,05,04,02,06,7.10
2020,05,04,02,07,7.00
2020,05,04,02,08,7.10
2020,05,04,02,09,7.10
2020,05,04,02,10,7.10
2020,05,04,02,11,7.10
2020,05,04,02,12,7.10
2020,05,04,02,13,7.10
2020,05,04,02,14,7.10
2020,05,04,02,15,7.10
2020,05,04,02,16,7.10
2020,05,04,02,17,7.00
2020,05,04,02,18,7.00
2020,05,04,02,19,7.00
2020,05,04,02,20,7.00
2020,05,04,02,21,7.00
2020,05,04,02,22,7.00
2020,05,04,02,23,7.00
2020,05,04,02,24,7.00
2020,05,04,02,25,7.00
2020,05,04,02,26,7.00
2020,05,04,02,27,6.90
2020,05,04,02,28,6.90
2020,05,04,02,29,7.00
2020,05,04,02,30,7.00
2020,05,04,02,31,7.00
2020,05,04,02,32,7.00
2020,05,04,02,33,6.90
2020,05,04,02,34,6.90
2020,05,04,02,35,7.00
2020,05,04,02,36,7.00
2020,05,04,02,37,7.00
2020,05,04,02,38,6.90
2020,05,04,02,39,6.90
2020,05,04,02,40,6.90
2020,05,04,02,41,6.90
2020,05,04,02,42,6.90
2020,05,04,02,43,6.90
2020,05,04,02,44,6.90
2020,05,04,02,45,6.90
2020,05,04,02,46,6.90
2020,05,04,02,47,6.80
2020,05,04,02,48,6.80
2020,05,04,02,49,6.80
2020,05,04,02,50,6.80
2020,05,04,02,51,6.80
2020,05,04,02,52,6.80
2020,05,04,02,53,6.80
2020,05,04,02,54,6.80
2020,05,04,02,55,6.90
2020,05,04,02,56,6.90
2020,05,04,02,57,6.90
2020,05,04,02,58,6.90
2020,05,04,02,59,6.80
2020,05,04,03,00,6.80
2020,05,04,03,01,6.80
2020,05,04,03,02,6.80
2020,05,04,03,03,6.80
2020,05,04,03,04,6.80
2020,05,04,03,05,6.80
2020,05,04,03,06,6.80
2020,05,04,03,07,6.80
2020,05,04,03,08,6.80
2020,05,04,03,09,6.70
2020,05,04,03,10,6.70
2020,05,04,03,11,6.80
2020,05,04,03,12,6.80
2020,05,04,03,13,6.80
2020,05,04,03,14,6.80
2020,05,04,03,15,6.80
2020,05,04,03,16,6.80
2020,05,04,03,17,6.80
2020,05,04,03,18,6.80
2020,05,04,03,19,6.80
2020,05,04,03,20,6.80
2020,05,04,03,21,6.80
2020,05,04,03,22,6.80
2020,05,04,03,23,6.80
2020,05,04,03,24,6.70
2020,05,04,03,25,6.70
2020,05,04,03,26,6.70
2020,05,04,03,27,6.70
2020,05,04,03,28,6.70
2020,05,04,03,29,6.70
2020,05,04,03,30,6.70
2020,05,04,03,31,6.60
2020,05,04,03,32,6.60
2020,05,04,03,33,6.60
2020,05,04,03,34,6.60
2020,05,04,03,35,6.60
2020,05,04,03,36,6.60
2020,05,04,03,37,6.60
2020,05,04,03,38,6.60
2020,05,04,03,39,6.60
2020,05,04,03,40,6.60
2020,05,04,03,41,6.60
2020,05,04,03,42,6.60
2020,05,04,03,43,6.60
2020,05,04,03,44,6.60
2020,05,04,03,45,6.60
2020,05,04,03,46,6.60
2020,05,04,03,47,6.70
2020,05,04,03,48,6.70
2020,05,04,03,49,6.70
2020,05,04,03,50,6.70
2020,05,04,03,51,6.70
2020,05,04,03,52,6.60
2020,05,04,03,53,6.60
2020,05,04,03,54,6.60
2020,05,04,03,55,6.60
2020,05,04,03,56,6.70
2020,05,04,03,57,6.70
2020,05,04,03,58,6.70
2020,05,04,03,59,6.70
2020,05,04,04,00,6.70
2020,05,04,04,01,6.70
2020,05,04,04,02,6.70
2020,05,04,04,03,6.80
2020,05,04,04,04,6.80
2020,05,04,04,05,6.80
2020,05,04,04,06,6.80
2020,05,04,04,07,6.80
2020,05,04,04,08,6.80
2020,05,04,04,09,6.80
2020,05,04,04,10,6.80
2020,05,04,04,11,6.80
2020,05,04,04,12,6.80
2020,05,04,04,13,6.80
2020,05,04,04,14,6.80
2020,05,04,04,15,6.80
2020,05,04,04,16,6.80
2020,05,04,04,17,6.70
2020,05,04,04,18,6.70
2020,05,04,04,19,6.70
2020,05,04,04,20,6.70
2020,05,04,04,21,6.70
2020,05,04,04,22,6.70
2020,05,04,04,23,6.70
2020,05,04,04,24,6.70
2020,05,04,04,25,6.70
2020,05,04,04,26,6.70
2020,05,04,04,27,6.70
2020,05,04,04,28,6.70
2020,05,04,04,29,6.70
2020,05,04,04,30,6.70
2020,05,04,04,31,6.70
2020,05,04,04,32,6.70
2020,05,04,04,33,6.70
2020,05,04,04,34,6.70
2020,05,04,04,35,6.70
2020,05,04,04,36,6.70
2020,05,04,04,37,6.70
2020,05,04,04,38,6.70
2020,05,04,04,39,6.60
2020,05,04,04,40,6.60
2020,05,04,04,41,6.60
2020,05,04,04,42,6.60
2020,05,04,04,43,6.60
2020,05,04,04,44,6.60
2020,05,04,04,45,6.70
2020,05,04,04,46,6.70
2020,05,04,04,47,6.70
2020,05,04,04,48,6.80
2020,05,04,04,49,6.80
2020,05,04,04,50,6.80
2020,05,04,04,51,6.80
2020,05,04,04,52,6.80
2020,05,04,04,53,6.80
2020,05,04,04,54,6.80
2020,05,04,04,55,6.80
2020,05,04,04,56,6.70
2020,05,04,04,57,6.70
2020,05,04,04,58,6.70
2020,05,04,04,59,6.70
2020,05,04,05,00,6.70
2020,05,04,05,01,6.70
2020,05,04,05,02,6.70
2020,05,04,05,03,6.70
2020,05,04,05,04,6.70
2020,05,04,05,05,6.70
2020,05,04,05,06,6.70
2020,05,04,05,07,6.70
2020,05,04,05,08,6.80
2020,05,04,05,09,6.80
2020,05,04,05,10,6.80
2020,05,04,05,11,6.80
2020,05,04,05,12,6.80
2020,05,04,05,13,6.80
2020,05,04,05,14,6.80
2020,05,04,05,15,6.80
2020,05,04,05,16,6.80
2020,05,04,05,17,6.80
2020,05,04,05,18,6.80
2020,05,04,05,19,6.80
2020,05,04,05,20,6.80
2020,05,04,05,21,6.80
2020,05,04,05,22,6.80
2020,05,04,05,23,6.80
2020,05,04,05,24,6.70
2020,05,04,05,25,6.70
2020,05,04,05,26,6.70
2020,05,04,05,27,6.70
2020,05,04,05,28,6.70
2020,05,04,05,29,6.60
2020,05,04,05,30,6.60
2020,05,04,05,31,6.60
2020,05,04,05,32,6.60
2020,05,04,05,33,6.60
2020,05,04,05,34,6.60
2020,05,04,05,35,6.60
2020,05,04,05,36,6.60
2020,05,04,05,37,6.50
2020,05,04,05,38,6.50
2020,05,04,05,39,6.50
2020,05,04,05,40,6.50
2020,05,04,05,41,6.50
2020,05,04,05,42,6.50
2020,05,04,05,43,6.40
2020,05,04,05,44,6.40
2020,05,04,05,45,6.40
2020,05,04,05,46,6.40
2020,05,04,05,47,6.40
2020,05,04,05,48,6.40
2020,05,04,05,49,6.40
2020,05,04,05,50,6.30
2020,05,04,05,51,6.30
2020,05,04,05,52,6.30
2020,05,04,05,53,6.30
2020,05,04,05,54,6.30
2020,05,04,05,55,6.40
2020,05,04,05,56,6.40
2020,05,04,05,57,6.40
2020,05,04,05,58,6.40
2020,05,04,05,59,6.40
2020,05,04,06,00,6.40
2020,05,04,06,01,6.40
2020,05,04,06,02,6.40
2020,05,04,06,03,6.40
2020,05,04,06,04,6.40
2020,05,04,06,05,6.50
2020,05,04,06,06,6.50
2020,05,04,06,07,6.50
2020,05,04,06,08,6.50
2020,05,04,06,09,6.50
2020,05,04,06,10,6.50
2020,05,04,06,11,6.60
2020,05,04,06,12,6.60
2020,05,04,06,13,6.60
2020,05,04,06,14,6.60
2020,05,04,06,15,6.60
2020,05,04,06,16,6.60
2020,05,04,06,17,6.60
2020,05,04,06,18,6.60
2020,05,04,06,19,6.60
2020,05,04,06,20,6.70
2020,05,04,06,21,6.70
2020,05,04,06,22,6.70
2020,05,04,06,23,6.70
2020,05,04,06,24,6.70
2020,05,04,06,25,6.70
2020,05,04,06,26,6.80
2020,05,04,06,27,6.80
2020,05,04,06,28,6.80
2020,05,04,06,29,6.90
2020,05,04,06,30,6.90
2020,05,04,06,31,6.90
2020,05,04,06,32,7.00
2020,05,04,06,33,7.00
2020,05,04,06,34,7.00
2020,05,04,06,35,7.10
2020,05,04,06,36,7.10
2020,05,04,06,37,7.20
2020,05,04,06,38,7.20
2020,05,04,06,39,7.30
2020,05,04,06,40,7.30
2020,05,04,06,41,7.30
2020,05,04,06,42,7.30
2020,05,04,06,43,7.30
2020,05,04,06,44,7.40
2020,05,04,06,45,7.40
2020,05,04,06,46,7.40
2020,05,04,06,47,7.50
2020,05,04,06,48,7.50
2020,05,04,06,49,7.50
2020,05,04,06,50,7.60
2020,05,04,06,51,7.60
2020,05,04,06,52,7.60
2020,05,04,06,53,7.70
2020,05,04,06,54,7.70
2020,05,04,06,55,7.70
2020,05,04,06,56,7.80
2020,05,04,06,57,7.80
2020,05,04,06,58,7.80
2020,05,04,06,59,7.80
2020,05,04,07,00,7.90
2020,05,04,07,01,7.90
2020,05,04,07,02,8.00
2020,05,04,07,03,8.00
2020,05,04,07,04,8.00
2020,05,04,07,05,8.00
2020,05,04,07,06,8.00
2020,05,04,07,07,8.00
2020,05,04,07,08,8.10
2020,05,04,07,09,8.10
2020,05,04,07,10,8.10
2020,05,04,07,11,8.10
2020,05,04,07,12,8.10
2020,05,04,07,13,8.10
2020,05,04,07,14,8.10
2020,05,04,07,15,8.10
2020,05,04,07,16,8.10
2020,05,04,07,17,8.10
2020,05,04,07,18,8.10
2020,05,04,07,19,8.10
2020,05,04,07,20,8.10
2020,05,04,07,21,8.10
2020,05,04,07,22,8.20
2020,05,04,07,23,8.20
2020,05,04,07,24,8.20
2020,05,04,07,25,8.30
2020,05,04,07,26,8.30
2020,05,04,07,27,8.30
2020,05,04,07,28,8.40
2020,05,04,07,29,8.50
2020,05,04,07,30,8.50
2020,05,04,07,31,8.60
2020,05,04,07,32,8.60
2020,05,04,07,33,8.60
2020,05,04,07,34,8.60
2020,05,04,07,35,8.70
2020,05,04,07,36,8.70
2020,05,04,07,37,8.70
2020,05,04,07,38,8.70
2020,05,04,07,39,8.70
2020,05,04,07,40,8.70
2020,05,04,07,41,8.70
2020,05,04,07,42,8.70
2020,05,04,07,43,8.60
2020,05,04,07,44,8.60
2020,05,04,07,45,8.60
2020,05,04,07,46,8.60
2020,05,04,07,47,8.60
2020,05,04,07,48,8.60
2020,05,04,07,49,8.50
2020,05,04,07,50,8.50
2020,05,04,07,51,8.50
2020,05,04,07,52,8.40
2020,05,04,07,53,8.40
2020,05,04,07,54,8.40
2020,05,04,07,55,8.30
2020,05,04,07,56,8.30
2020,05,04,07,57,8.30
2020,05,04,07,58,8.30
2020,05,04,07,59,8.30
2020,05,04,08,00,8.30
2020,05,04,08,01,8.30
2020,05,04,08,02,8.30
2020,05,04,08,03,8.30
2020,05,04,08,04,8.30
2020,05,04,08,05,8.30
2020,05,04,08,06,8.30
2020,05,04,08,07,8.30
2020,05,04,08,08,8.30
2020,05,04,08,09,8.30
2020,05,04,08,10,8.30
2020,05,04,08,11,8.30
2020,05,04,08,12,8.30
2020,05,04,08,13,8.30
2020,05,04,08,14,8.30
2020,05,04,08,15,8.30
2020,05,04,08,16,8.30
2020,05,04,08,17,8.30
2020,05,04,08,18,8.30
2020,05,04,08,19,8.30
2020,05,04,08,20,8.30
2020,05,04,08,21,8.40
2020,05,04,08,22,8.40
2020,05,04,08,23,8.40
2020,05,04,08,24,8.40
2020,05,04,08,25,8.40
2020,05,04,08,26,8.40
2020,05,04,08,27,8.50
2020,05,04,08,28,8.50
2020,05,04,08,29,8.50
2020,05,04,08,30,8.60
2020,05,04,08,31,8.60
2020,05,04,08,32,8.60
2020,05,04,08,33,8.60
2020,05,04,08,34,8.70
2020,05,04,08,35,8.70
2020,05,04,08,36,8.70
2020,05,04,08,37,8.80
2020,05,04,08,38,8.80
2020,05,04,08,39,8.80
2020,05,04,08,40,8.90
2020,05,04,08,41,8.90
2020,05,04,08,42,8.90
2020,05,04,08,43,8.90
2020,05,04,08,44,8.90
2020,05,04,08,45,9.00
2020,05,04,08,46,9.00
2020,05,04,08,47,9.00
2020,05,04,08,48,9.00
2020,05,04,08,49,9.00
2020,05,04,08,50,9.00
2020,05,04,08,51,9.00
2020,05,04,08,52,9.00
2020,05,04,08,53,9.00
2020,05,04,08,54,9.00
2020,05,04,08,55,9.00
2020,05,04,08,56,9.00
2020,05,04,08,57,9.00
2020,05,04,08,58,9.00
2020,05,04,08,59,9.00
2020,05,04,09,00,9.10
2020,05,04,09,01,9.10
2020,05,04,09,02,9.10
2020,05,04,09,03,9.10
2020,05,04,09,04,9.10
2020,05,04,09,05,9.20
2020,05,04,09,06,9.20
2020,05,04,09,07,9.20
2020,05,04,09,08,9.20
2020,05,04,09,09,9.20
2020,05,04,09,10,9.20
2020,05,04,09,11,9.20
2020,05,04,09,12,9.20
2020,05,04,09,13,9.20
2020,05,04,09,14,9.20
2020,05,04,09,15,9.20
2020,05,04,09,16,9.20
2020,05,04,09,17,9.20
2020,05,04,09,18,9.20
2020,05,04,09,19,9.20
2020,05,04,09,20,9.20
2020,05,04,09,21,9.20
2020,05,04,09,22,9.20
2020,05,04,09,23,9.20
2020,05,04,09,24,9.20
2020,05,04,09,25,9.20
2020,05,04,09,26,9.20
2020,05,04,09,27,9.20
2020,05,04,09,28,9.20
2020,05,04,09,29,9.20
2020,05,04,09,30,9.20
2020,05,04,09,31,9.20
2020,05,04,09,32,9.20
2020,05,04,09,33,9.20
2020,05,04,09,34,9.20
2020,05,04,09,35,9.20
2020,05,04,09,36,9.20
2020,05,04,09,37,9.20
2020,05,04,09,38,9.30
2020,05,04,09,39,9.30
2020,05,04,09,40,9.30
2020,05,04,09,41,9.30
2020,05,04,09,42,9.30
2020,05,04,09,43,9.30
2020,05,04,09,44,9.40
2020,05,04,09,45,9.40
2020,05,04,09,46,9.40
2020,05,04,09,47,9.40
2020,05,04,09,48,9.40
2020,05,04,09,49,9.40
2020,05,04,09,50,9.40
2020,05,04,09,51,9.30
2020,05,04,09,52,9.30
2020,05,04,09,53,9.30
2020,05,04,09,54,9.30
2020,05,04,09,55,9.30
2020,05,04,09,56,9.30
2020,05,04,09,57,9.30
2020,05,04,09,58,9.30
2020,05,04,09,59,9.20
2020,05,04,10,00,9.20
2020,05,04,10,01,9.20
2020,05,04,10,02,9.20
2020,05,04,10,03,9.20
2020,05,04,10,04,9.20
2020,05,04,10,05,9.20
2020,05,04,10,06,9.20
2020,05,04,10,07,9.20
2020,05,04,10,08,9.20
2020,05,04,10,09,9.20
2020,05,04,10,10,9.20
2020,05,04,10,11,9.20
2020,05,04,10,12,9.20
2020,05,04,10,13,9.20
2020,05,04,10,14,9.20
2020,05,04,10,15,9.20
2020,05,04,10,16,9.20
2020,05,04,10,17,9.20
2020,05,04,10,18,9.20
2020,05,04,10,19,9.20
2020,05,04,10,20,9.20
2020,05,04,10,21,9.20
2020,05,04,10,22,9.20
2020,05,04,10,23,9.20
2020,05,04,10,24,9.20
2020,05,04,10,25,9.10
2020,05,04,10,26,9.10
2020,05,04,10,27,9.10
2020,05,04,10,28,9.10
2020,05,04,10,29,9.10
2020,05,04,10,30,9.10
2020,05,04,10,31,9.10
2020,05,04,10,32,9.10
2020,05,04,10,33,9.10
2020,05,04,10,34,9.10
2020,05,04,10,35,9.10
2020,05,04,10,36,9.10
2020,05,04,10,37,9.10
2020,05,04,10,38,9.10
2020,05,04,10,39,9.10
2020,05,04,10,40,9.10
2020,05,04,10,41,9.10
2020,05,04,10,42,9.10
2020,05,04,10,43,9.10
2020,05,04,10,44,9.20
2020,05,04,10,45,9.20
2020,05,04,10,46,9.20
2020,05,04,10,47,9.20
2020,05,04,10,48,9.20
2020,05,04,10,49,9.20
2020,05,04,10,50,9.30
2020,05,04,10,51,9.30
2020,05,04,10,52,9.30
2020,05,04,10,53,9.30
2020,05,04,10,54,9.40
2020,05,04,10,55,9.40
2020,05,04,10,56,9.40
2020,05,04,10,57,9.40
2020,05,04,10,58,9.40
2020,05,04,10,59,9.50
2020,05,04,11,00,9.50
2020,05,04,11,01,9.50
2020,05,04,11,02,9.50
2020,05,04,11,03,9.60
2020,05,04,11,04,9.60
2020,05,04,11,05,9.60
2020,05,04,11,06,9.60
2020,05,04,11,07,9.70
2020,05,04,11,08,9.70
2020,05,04,11,09,9.70
2020,05,04,11,10,9.70
2020,05,04,11,11,9.70
2020,05,04,11,12,9.70
2020,05,04,11,13,9.70
2020,05,04,11,14,9.70
2020,05,04,11,15,9.80
2020,05,04,11,16,9.80
2020,05,04,11,17,9.80
2020,05,04,11,18,9.80
2020,05,04,11,19,9.80
2020,05,04,11,20,9.80
2020,05,04,11,21,9.80
2020,05,04,11,22,9.90
2020,05,04,11,23,9.90
2020,05,04,11,24,9.90
2020,05,04,11,25,9.90
2020,05,04,11,26,9.90
2020,05,04,11,27,9.90
2020,05,04,11,28,9.90
2020,05,04,11,29,9.90
2020,05,04,11,30,9.90
2020,05,04,11,31,9.90
2020,05,04,11,32,9.90
2020,05,04,11,33,9.90
2020,05,04,11,34,9.90
2020,05,04,11,35,9.90
2020,05,04,11,36,9.90
2020,05,04,11,37,9.80
2020,05,04,11,38,9.80
2020,05,04,11,39,9.80
2020,05,04,11,40,9.80
2020,05,04,11,41,9.80
2020,05,04,11,42,9.80
2020,05,04,11,43,9.70
2020,05,04,11,44,9.70
2020,05,04,11,45,9.70
2020,05,04,11,46,9.70
2020,05,04,11,47,9.70
2020,05,04,11,48,9.70
2020,05,04,11,49,9.70
2020,05,04,11,50,9.70
2020,05,04,11,51,9.70
2020,05,04,11,52,9.70
2020,05,04,11,53,9.70
2020,05,04,11,54,9.60
2020,05,04,11,55,9.60
2020,05,04,11,56,9.60
2020,05,04,11,57,9.60
2020,05,04,11,58,9.60
2020,05,04,11,59,9.50
2020,05,04,12,00,9.50
2020,05,04,12,01,9.50
2020,05,04,12,02,9.50
2020,05,04,12,03,9.50
2020,05,04,12,04,9.60
2020,05,04,12,05,9.60
2020,05,04,12,06,9.60
2020,05,04,12,07,9.60
2020,05,04,12,08,9.60
2020,05,04,12,09,9.70
2020,05,04,12,10,9.70
2020,05,04,12,11,9.70
2020,05,04,12,12,9.70
2020,05,04,12,13,9.70
2020,05,04,12,14,9.70
2020,05,04,12,15,9.70
2020,05,04,12,16,9.70
2020,05,04,12,17,9.70
2020,05,04,12,18,9.60
2020,05,04,12,19,9.60
2020,05,04,12,20,9.60
2020,05,04,12,21,9.60
2020,05,04,12,22,9.60
2020,05,04,12,23,9.60
2020,05,04,12,24,9.60
2020,05,04,12,25,9.60
2020,05,04,12,26,9.60
2020,05,04,12,27,9.60
2020,05,04,12,28,9.60
2020,05,04,12,29,9.60
2020,05,04,12,30,9.60
2020,05,04,12,31,9.60
2020,05,04,12,32,9.60
2020,05,04,12,33,9.60
2020,05,04,12,34,9.60
2020,05,04,12,35,9.70
2020,05,04,12,36,9.70
2020,05,04,12,37,9.70
2020,05,04,12,38,9.70
2020,05,04,12,39,9.70
2020,05,04,12,40,9.70
2020,05,04,12,41,9.70
2020,05,04,12,42,9.80
2020,05,04,12,43,9.80
2020,05,04,12,44,9.90
2020,05,04,12,45,9.90
2020,05,04,12,46,10.00
2020,05,04,12,47,10.00
2020,05,04,12,48,10.10
2020,05,04,12,49,10.10
2020,05,04,12,50,10.10
2020,05,04,12,51,10.20
2020,05,04,12,52,10.20
2020,05,04,12,53,10.20
2020,05,04,12,54,10.30
2020,05,04,12,55,10.30
2020,05,04,12,56,10.30
2020,05,04,12,57,10.30
2020,05,04,12,58,10.30
2020,05,04,12,59,10.30
2020,05,04,13,00,10.30
2020,05,04,13,01,10.30
2020,05,04,13,02,10.30
2020,05,04,13,03,10.30
2020,05,04,13,04,10.30
2020,05,04,13,05,10.20
2020,05,04,13,06,10.20
2020,05,04,13,07,10.20
2020,05,04,13,08,10.20
2020,05,04,13,09,10.20
2020,05,04,13,10,10.20
2020,05,04,13,11,10.20
2020,05,04,13,12,10.20
2020,05,04,13,13,10.20
2020,05,04,13,14,10.20
2020,05,04,13,15,10.20
2020,05,04,13,16,10.20
2020,05,04,13,17,10.20
2020,05,04,13,18,10.20
2020,05,04,13,19,10.20
2020,05,04,13,20,10.30
2020,05,04,13,21,10.30
2020,05,04,13,22,10.30
2020,05,04,13,23,10.30
2020,05,04,13,24,10.40
2020,05,04,13,25,10.40
2020,05,04,13,26,10.40
2020,05,04,13,27,10.50
2020,05,04,13,28,10.50
2020,05,04,13,29,10.60
2020,05,04,13,30,10.60
2020,05,04,13,31,10.70
2020,05,04,13,32,10.70
2020,05,04,13,33,10.80
2020,05,04,13,34,10.80
2020,05,04,13,35,10.80
2020,05,04,13,36,10.90
2020,05,04,13,37,10.90
2020,05,04,13,38,10.90
2020,05,04,13,39,11.00
2020,05,04,13,40,11.00
2020,05,04,13,41,11.00
2020,05,04,13,42,11.10
2020,05,04,13,43,11.00
2020,05,04,13,44,11.10
2020,05,04,13,45,11.10
2020,05,04,13,46,11.10
2020,05,04,13,47,11.10
2020,05,04,13,48,11.10
2020,05,04,13,49,11.10
2020,05,04,13,50,11.20
2020,05,04,13,51,11.20
2020,05,04,13,52,11.20
2020,05,04,13,53,11.20
2020,05,04,13,54,11.20
2020,05,04,13,55,11.30
2020,05,04,13,56,11.30
2020,05,04,13,57,11.30
2020,05,04,13,58,11.30
2020,05,04,13,59,11.30
2020,05,04,14,00,11.40
2020,05,04,14,01,11.40
2020,05,04,14,02,11.40
2020,05,04,14,03,11.40
2020,05,04,14,04,11.40
2020,05,04,14,05,11.40
2020,05,04,14,06,11.50
2020,05,04,14,07,11.50
2020,05,04,14,08,11.50
2020,05,04,14,09,11.40
2020,05,04,14,10,11.50
2020,05,04,14,11,11.50
2020,05,04,14,12,11.50
2020,05,04,14,13,11.60
2020,05,04,14,14,11.60
2020,05,04,14,15,11.60
2020,05,04,14,16,11.60
2020,05,04,14,17,11.60
2020,05,04,14,18,11.60
2020,05,04,14,19,11.60
2020,05,04,14,20,11.60
2020,05,04,14,21,11.60
2020,05,04,14,22,11.60
2020,05,04,14,23,11.70
2020,05,04,14,24,11.70
2020,05,04,14,25,11.70
2020,05,04,14,26,11.70
2020,05,04,14,27,11.70
2020,05,04,14,28,11.80
2020,05,04,14,29,11.80
2020,05,04,14,30,11.80
2020,05,04,14,31,11.80
2020,05,04,14,32,11.80
2020,05,04,14,33,11.80
2020,05,04,14,34,11.80
2020,05,04,14,35,11.80
2020,05,04,14,36,11.90
2020,05,04,14,37,11.90
2020,05,04,14,38,11.90
2020,05,04,14,39,11.80
2020,05,04,14,40,11.80
2020,05,04,14,41,11.80
2020,05,04,14,42,11.80
2020,05,04,14,43,11.80
2020,05,04,14,44,11.80
2020,05,04,14,45,11.80
2020,05,04,14,46,11.80
2020,05,04,14,47,11.90
2020,05,04,14,48,11.90
2020,05,04,14,49,11.90
2020,05,04,14,50,11.90
2020,05,04,14,51,12.00
2020,05,04,14,52,12.00
2020,05,04,14,53,12.00
2020,05,04,14,54,12.10
2020,05,04,14,55,12.10
2020,05,04,14,56,12.10
2020,05,04,14,57,12.20
2020,05,04,14,58,12.20
2020,05,04,14,59,12.20
2020,05,04,15,00,12.20
2020,05,04,15,01,12.20
2020,05,04,15,02,12.30
2020,05,04,15,03,12.30
2020,05,04,15,04,12.30
2020,05,04,15,05,12.30
2020,05,04,15,06,12.30
2020,05,04,15,07,12.30
2020,05,04,15,08,12.30
2020,05,04,15,09,12.30
2020,05,04,15,10,12.30
2020,05,04,15,11,12.30
2020,05,04,15,12,12.30
2020,05,04,15,13,12.40
2020,05,04,15,14,12.40
2020,05,04,15,15,12.40
2020,05,04,15,16,12.40
2020,05,04,15,17,12.40
2020,05,04,15,18,12.50
2020,05,04,15,19,12.50
2020,05,04,15,20,12.50
2020,05,04,15,21,12.60
2020,05,04,15,22,12.60
2020,05,04,15,23,12.70
2020,05,04,15,24,12.70
2020,05,04,15,25,12.70
2020,05,04,15,26,12.70
2020,05,04,15,27,12.80
2020,05,04,15,28,12.80
2020,05,04,15,29,12.80
2020,05,04,15,30,12.80
2020,05,04,15,31,12.80
2020,05,04,15,32,12.80
2020,05,04,15,33,12.80
2020,05,04,15,34,12.80
2020,05,04,15,35,12.80
2020,05,04,15,36,12.90
2020,05,04,15,37,12.90
2020,05,04,15,38,12.90
2020,05,04,15,39,13.00
2020,05,04,15,40,13.10
2020,05,04,15,41,13.10
2020,05,04,15,42,13.10
2020,05,04,15,43,13.20
2020,05,04,15,44,13.20
2020,05,04,15,45,13.20
2020,05,04,15,46,13.20
2020,05,04,15,47,13.20
2020,05,04,15,48,13.30
2020,05,04,15,49,13.20
2020,05,04,15,50,13.20
2020,05,04,15,51,13.20
2020,05,04,15,52,13.20
2020,05,04,15,53,13.20
2020,05,04,15,54,13.30
2020,05,04,15,55,13.30
2020,05,04,15,56,13.30
2020,05,04,15,57,13.30
2020,05,04,15,58,13.30
2020,05,04,15,59,13.30
2020,05,04,16,00,13.30
2020,05,04,16,01,13.40
2020,05,04,16,02,13.30
2020,05,04,16,03,13.30
2020,05,04,16,04,13.30
2020,05,04,16,05,13.30
2020,05,04,16,06,13.20
2020,05,04,16,07,13.20
2020,05,04,16,08,13.20
2020,05,04,16,09,13.10
2020,05,04,16,10,13.10
2020,05,04,16,11,13.10
2020,05,04,16,12,13.10
2020,05,04,16,13,13.10
2020,05,04,16,14,13.00
2020,05,04,16,15,13.10
2020,05,04,16,16,13.10
2020,05,04,16,17,13.10
2020,05,04,16,18,13.10
2020,05,04,16,19,13.10
2020,05,04,16,20,13.10
2020,05,04,16,21,13.10
2020,05,04,16,22,13.10
2020,05,04,16,23,13.10
2020,05,04,16,24,13.10
2020,05,04,16,25,13.20
2020,05,04,16,26,13.20
2020,05,04,16,27,13.20
2020,05,04,16,28,13.20
2020,05,04,16,29,13.20
2020,05,04,16,30,13.20
2020,05,04,16,31,13.10
2020,05,04,16,32,13.10
2020,05,04,16,33,13.10
2020,05,04,16,34,13.10
2020,05,04,16,35,13.10
2020,05,04,16,36,13.10
2020,05,04,16,37,13.10
2020,05,04,16,38,13.10
2020,05,04,16,39,13.10
2020,05,04,16,40,13.10
2020,05,04,16,41,13.20
2020,05,04,16,42,13.20
2020,05,04,16,43,13.20
2020,05,04,16,44,13.20
2020,05,04,16,45,13.20
2020,05,04,16,46,13.20
2020,05,04,16,47,13.20
2020,05,04,16,48,13.20
2020,05,04,16,49,13.20
2020,05,04,16,50,13.20
2020,05,04,16,51,13.20
2020,05,04,16,52,13.30
2020,05,04,16,53,13.30
2020,05,04,16,54,13.30
2020,05,04,16,55,13.40
2020,05,04,16,56,13.40
2020,05,04,16,57,13.40
2020,05,04,16,58,13.40
2020,05,04,16,59,13.50
2020,05,04,17,00,13.60
2020,05,04,17,01,13.60
2020,05,04,17,02,13.60
2020,05,04,17,03,13.70
2020,05,04,17,04,13.70
2020,05,04,17,05,13.70
2020,05,04,17,06,13.80
2020,05,04,17,07,13.80
2020,05,04,17,08,13.80
2020,05,04,17,09,13.80
2020,05,04,17,10,13.90
2020,05,04,17,11,13.90
2020,05,04,17,12,13.90
2020,05,04,17,13,14.00
2020,05,04,17,14,14.00
2020,05,04,17,15,14.10
2020,05,04,17,16,14.10
2020,05,04,17,17,14.20
2020,05,04,17,18,14.20
2020,05,04,17,19,14.30
2020,05,04,17,20,14.30
2020,05,04,17,21,14.40
2020,05,04,17,22,14.40
2020,05,04,17,23,14.50
2020,05,04,17,24,14.50
2020,05,04,17,25,14.60
2020,05,04,17,26,14.60
2020,05,04,17,27,14.70
2020,05,04,17,28,14.70
2020,05,04,17,29,14.70
2020,05,04,17,30,14.70
2020,05,04,17,31,14.70
2020,05,04,17,32,14.70
2020,05,04,17,33,14.80
2020,05,04,17,34,14.70
2020,05,04,17,35,14.80
2020,05,04,17,36,14.80
2020,05,04,17,37,14.80
2020,05,04,17,38,14.80
2020,05,04,17,39,14.80
2020,05,04,17,40,14.70
2020,05,04,17,41,14.70
2020,05,04,17,42,14.70
2020,05,04,17,43,14.70
2020,05,04,17,44,14.60
2020,05,04,17,45,14.60
2020,05,04,17,46,14.60
2020,05,04,17,47,14.60
2020,05,04,17,48,14.50
2020,05,04,17,49,14.50
2020,05,04,17,50,14.50
2020,05,04,17,51,14.50
2020,05,04,17,52,14.40